When you browse on this site, cookies collect data to enhance your experience and personalize the content and advertising you see.
Visit our Privacy Policy to learn more. By continuing to use the site, you agree to this use of cookies and data.
  • In Sweden
  • List of Countries
  • For 7 days
  • Water Temperature
  • Satellite Maps
  • Weather Map
  • Weather Widgets
  • user-avatar
    Login

    Hourly Weather Omagh

    Today, 19 January, Saturday

    Time Temperature Precipitation Wind Pressure Humidity
    00:00 +5°C° 0.3 mm 1 mps 745 mmHg 98%
    01:00 +5°C° 0.8 mm 1 mps 745 mmHg 98%
    02:00 +5°C° 0.8 mm 1 mps 745 mmHg 98%
    03:00 +5°C° 0.8 mm 1 mps 745 mmHg 98%
    04:00 +5°C° 0.2 mm 1 mps 745 mmHg 98%
    05:00 +5°C° 0.2 mm 1 mps 745 mmHg 98%
    06:00 +5°C° 0.2 mm 1 mps 745 mmHg 98%
    07:00 +5°C° 0 mm 1 mps 745 mmHg 98%
    08:00 +4°C° 0 mm 0 mps 746 mmHg 98%
    09:00 +4°C° 0 mm 0 mps 746 mmHg 98%
    10:00 +5°C° 0 mm 0 mps 746 mmHg 97%
    11:00 +5°C° 0 mm 0 mps 747 mmHg 96%
    12:00 +6°C° 0 mm 0 mps 747 mmHg 95%
    13:00 +6°C° 0 mm 0 mps 747 mmHg 95%
    14:00 +6°C° 0 mm 0 mps 747 mmHg 96%
    15:00 +6°C° 0 mm 0 mps 748 mmHg 96%
    16:00 +6°C° 0.1 mm 0 mps 748 mmHg 96%
    17:00 +6°C° 0.1 mm 0 mps 748 mmHg 97%
    18:00 +5°C° 0.1 mm 0 mps 749 mmHg 97%
    19:00 +5°C° 0 mm 0 mps 749 mmHg 97%
    20:00 +5°C° 0 mm 0 mps 750 mmHg 97%
    21:00 +4°C° 0 mm 0 mps 750 mmHg 97%
    22:00 +4°C° 0 mm 0 mps 751 mmHg 97%
    23:00 +4°C° 0 mm 0 mps 751 mmHg 97%

    Tomorrow, 20 January, Sunday

    Time Temperature Precipitation Wind Pressure Humidity
    00:00 +4°C° 0 mm 0 mps 752 mmHg 96%
    01:00 +4°C° 0 mm 0 mps 752 mmHg 96%
    02:00 +4°C° 0 mm 0 mps 753 mmHg 96%
    03:00 +4°C° 0 mm 1 mps 753 mmHg 96%
    04:00 +4°C° 0.4 mm 2 mps 754 mmHg 95%
    05:00 +4°C° 0.4 mm 3 mps 754 mmHg 95%
    06:00 +4°C° 0.4 mm 3 mps 755 mmHg 95%
    07:00 +4°C° 0.2 mm 4 mps 756 mmHg 93%
    08:00 +3°C° 0.2 mm 4 mps 757 mmHg 91%
    09:00 +3°C° 0.2 mm 4 mps 758 mmHg 89%
    10:00 +3°C° 0 mm 4 mps 759 mmHg 86%
    11:00 +4°C° 0 mm 4 mps 759 mmHg 83%
    12:00 +4°C° 0 mm 4 mps 760 mmHg 80%
    13:00 +4°C° 0 mm 4 mps 761 mmHg 79%
    14:00 +4°C° 0 mm 3 mps 761 mmHg 79%
    15:00 +3°C° 0 mm 3 mps 761 mmHg 78%
    16:00 +3°C° 0 mm 2 mps 762 mmHg 82%
    17:00 +2°C° 0 mm 2 mps 762 mmHg 87%
    18:00 +2°C° 0 mm 1 mps 763 mmHg 91%
    19:00 +2°C° 0 mm 1 mps 763 mmHg 91%
    20:00 +1°C° 0 mm 1 mps 763 mmHg 91%
    21:00 +1°C° 0 mm 1 mps 764 mmHg 91%
    22:00 +1°C° 0 mm 1 mps 764 mmHg 90%
    23:00 +1°C° 0 mm 1 mps 764 mmHg 90%

    Day after tomorrow, 21 January, Monday

    Time Temperature Precipitation Wind Pressure Humidity
    00:00 +1°C° 0 mm 1 mps 764 mmHg 89%
    01:00 +1°C° 0 mm 1 mps 763 mmHg 90%
    02:00 +1°C° 0 mm 1 mps 763 mmHg 91%
    03:00 +1°C° 0 mm 1 mps 762 mmHg 92%
    04:00 -1°C° 0 mm 2 mps 761 mmHg 91%
    05:00 -1°C° 0 mm 2 mps 761 mmHg 90%
    06:00 -1°C° 0 mm 2 mps 760 mmHg 90%
    07:00 -1°C° 0 mm 3 mps 759 mmHg 88%
    08:00 0°C° 0 mm 3 mps 758 mmHg 87%
    09:00 -1°C° 0 mm 4 mps 758 mmHg 85%
    10:00 0°C° 0 mm 5 mps 756 mmHg 83%
    11:00 +1°C° 0 mm 6 mps 754 mmHg 80%
    12:00 +2°C° 0 mm 7 mps 752 mmHg 78%
    13:00 +2°C° 0.8 mm 7 mps 750 mmHg 81%
    14:00 +3°C° 0.8 mm 7 mps 749 mmHg 84%
    15:00 +3°C° 0.8 mm 7 mps 747 mmHg 88%
    16:00 +2°C° 1.3 mm 6 mps 746 mmHg 86%
    17:00 +1°C° 1.3 mm 5 mps 746 mmHg 84%
    18:00 0°C° 1.3 mm 4 mps 746 mmHg 83%
    19:00 0°C° 0.1 mm 4 mps 745 mmHg 84%
    20:00 -1°C° 0.1 mm 4 mps 745 mmHg 85%
    21:00 -1°C° 0.1 mm 4 mps 744 mmHg 87%
    22:00 -1°C° 0.3 mm 4 mps 744 mmHg 86%
    23:00 -1°C° 0.3 mm 4 mps 743 mmHg 84%

    22 January, Tuesday

    Time Temperature Precipitation Wind Pressure Humidity
    00:00 -1°C° 0.3 mm 4 mps 743 mmHg 83%
    01:00 -1°C° 0.4 mm 4 mps 743 mmHg 83%
    02:00 -1°C° 0.4 mm 4 mps 743 mmHg 82%
    03:00 -1°C° 0.4 mm 4 mps 742 mmHg 82%
    04:00 -1°C° 0.1 mm 4 mps 743 mmHg 82%
    05:00 -1°C° 0.1 mm 4 mps 743 mmHg 81%
    06:00 -2°C° 0.1 mm 4 mps 743 mmHg 81%
    07:00 -2°C° 0.1 mm 4 mps 743 mmHg 82%
    08:00 -1°C° 0.1 mm 3 mps 743 mmHg 82%
    09:00 -2°C° 0.1 mm 3 mps 743 mmHg 82%
    10:00 -2°C° 0 mm 4 mps 743 mmHg 79%
    11:00 -1°C° 0 mm 4 mps 744 mmHg 76%
    12:00 0°C° 0 mm 4 mps 744 mmHg 74%
    13:00 0°C° 0.1 mm 4 mps 744 mmHg 75%
    14:00 0°C° 0.1 mm 4 mps 744 mmHg 75%
    15:00 0°C° 0.1 mm 4 mps 744 mmHg 76%
    16:00 -1°C° 0 mm 4 mps 744 mmHg 78%
    17:00 -1°C° 0 mm 3 mps 744 mmHg 81%
    18:00 -2°C° 0 mm 3 mps 744 mmHg 83%
    19:00 -2°C° 0 mm 3 mps 744 mmHg 84%
    20:00 -2°C° 0 mm 2 mps 744 mmHg 85%
    21:00 -2°C° 0 mm 2 mps 744 mmHg 86%
    22:00 -2°C° 0 mm 2 mps 745 mmHg 86%
    23:00 -2°C° 0 mm 2 mps 745 mmHg 86%

    23 January, Wednesday

    Time Temperature Precipitation Wind Pressure Humidity
    00:00 -2°C° 0 mm 2 mps 745 mmHg 87%
    01:00 -2°C° 0 mm 2 mps 745 mmHg 87%
    02:00 -2°C° 0 mm 2 mps 745 mmHg 88%
    03:00 -3°C° 0 mm 2 mps 745 mmHg 89%
    04:00 -2°C° 0 mm 2 mps 745 mmHg 89%
    05:00 -2°C° 0 mm 2 mps 745 mmHg 89%
    06:00 -2°C° 0 mm 2 mps 746 mmHg 89%
    07:00 -2°C° 0 mm 2 mps 746 mmHg 89%
    08:00 -2°C° 0 mm 2 mps 747 mmHg 89%
    09:00 -3°C° 0 mm 2 mps 747 mmHg 89%
    10:00 -1°C° 0 mm 2 mps 747 mmHg 86%
    11:00 +1°C° 0 mm 2 mps 748 mmHg 82%
    12:00 +2°C° 0 mm 3 mps 748 mmHg 79%
    13:00 +2°C° 0 mm 3 mps 749 mmHg 79%
    14:00 +2°C° 0 mm 3 mps 749 mmHg 80%
    15:00 +2°C° 0 mm 3 mps 749 mmHg 81%
    16:00 +1°C° 0 mm 3 mps 750 mmHg 83%
    17:00 0°C° 0 mm 3 mps 750 mmHg 85%
    18:00 -1°C° 0 mm 3 mps 751 mmHg 87%
    19:00 0°C° 0 mm 3 mps 752 mmHg 88%
    20:00 0°C° 0 mm 3 mps 752 mmHg 88%
    21:00 0°C° 0 mm 3 mps 753 mmHg 88%
    22:00 0°C° 0 mm 3 mps 754 mmHg 89%
    23:00 0°C° 0 mm 3 mps 754 mmHg 91%

    24 January, Thursday

    Time Temperature Precipitation Wind Pressure Humidity
    00:00 +1°C° 0 mm 2 mps 755 mmHg 92%
    01:00 +1°C° 0 mm 2 mps 755 mmHg 93%
    02:00 +1°C° 0 mm 2 mps 755 mmHg 94%
    03:00 -1°C° 0 mm 2 mps 756 mmHg 95%
    04:00 +2°C° 0 mm 1 mps 756 mmHg 95%
    05:00 +2°C° 0 mm 1 mps 756 mmHg 95%
    06:00 +2°C° 0 mm 1 mps 757 mmHg 95%
    07:00 +2°C° 0 mm 1 mps 757 mmHg 95%
    08:00 +1°C° 0 mm 1 mps 757 mmHg 95%
    09:00 +1°C° 0 mm 1 mps 758 mmHg 94%
    10:00 +2°C° 0 mm 1 mps 758 mmHg 92%
    11:00 +3°C° 0 mm 1 mps 758 mmHg 89%
    12:00 +4°C° 0 mm 1 mps 758 mmHg 86%
    13:00 +4°C° 0 mm 1 mps 758 mmHg 87%
    14:00 +4°C° 0 mm 1 mps 758 mmHg 88%
    15:00 +5°C° 0 mm 1 mps 758 mmHg 90%
    16:00 +3°C° 0 mm 1 mps 759 mmHg 91%
    17:00 +2°C° 0 mm 1 mps 759 mmHg 93%
    18:00 +1°C° 0 mm 1 mps 759 mmHg 95%
    19:00 +1°C° 0 mm 1 mps 760 mmHg 95%
    20:00 +1°C° 0 mm 1 mps 760 mmHg 94%
    21:00 +1°C° 0 mm 1 mps 760 mmHg 94%
    22:00 +1°C° 0 mm 1 mps 760 mmHg 93%
    23:00 0°C° 0 mm 1 mps 761 mmHg 92%
    Show more